FENGYUN 1C DEB

Satellite information

Favourite Embed

Satellite Type and Status

DEBRISIN ORBIT

Key statistics

Satellite FENGYUN 1C DEB at a glance.

Uptime

9496

Days in orbit

Revolutions

≈ 14.3

Per day

Orbit

SSO

Sun Synchronous Orbit

Inclination

98.8

Latest

Satellite identification and parameters

Extended collection of information and parameters for FENGYUN 1C DEB.

Object identification

Identified? True

Debris? True

Object name: FENGYUN 1C DEB

International designator: 1999-025ADD

Object number (NORAD): 30390

Object ID (CCSDS): 30390

Country: PEOPLES REPUBLIC OF CHINA (PRC)

Current information (Y/N): Y

RCS size: SMALL

Orbital parameters

Period: 100.862 minutes

Inclination: 98.828 deg

SMA: 7177.594 km

Apoapsis: 849.914 km

Periapsis: 749.005 km

RAAN: 207.8435 deg

Eccentricy: 0.0070294

Argument of periapsis: 85.1148 deg

Mean anomaly: 305.6916 deg

Mean motion: 14.27691581 rev/day

Mean motion (dot): 0.00005129 rev/day2

B* drag term: 0.0020423 1/REarth

Two-line elements (TLE)

Creation date: May 8, 2025, 3:01 a.m.

Reference frame: TEME

Reference center: EARTH

Epoch: May 7, 2025, 3:58 a.m. UTC

TLE line 0: 0 FENGYUN 1C DEB

TLE line 1: 1 30390U 99025ADD 25127.16548891 .00005129 00000-0 20423-2 0 9999

TLE line 2: 2 30390 98.8280 207.8435 0070294 85.1148 305.6916 14.27691581942492

Live tracking on map

Real-time ground track for satellite FENGYUN 1C DEB.

In-orbit conjunctions

A list of the most updated potential collisions computed for object FENGYUN 1C DEB.

Target Orbit TCA Probability of collision Miss distance Type
DMSP 5D-2 F13 DEB SSO 2025-01-22 02:12:58 0.0001032162 258.0 (m) DEBRIS
SCOUT G-1 R/B LEO 2024-12-20 15:16:49 0.0002448382 169.0 (m) ROCKET BODY
CZ-6A DEB SSO 2024-10-16 07:55:58 0.0001701097 102.0 (m) DEBRIS
CZ-6A DEB LEO 2024-10-05 02:34:20 0.0001234191 858.0 (m) DEBRIS
SCOUT B R/B MEO 2024-10-04 12:28:17 0.0001223601 143.0 (m) ROCKET BODY

Associated space launch

Chinese polar orbiting meteorological satellite

FENGYUN 1C DEB was lifted into orbit during the mission ‘Long March 4B | Feng Yun 1C’, on board a Long March 4B space rocket.

The launch took place on May 10, 1999, 1:33 a.m. from Launch Complex 7.

For more information about the launch, click the button.

Launch to space Long March 4B | Feng Yun 1C
Long March 4B | Feng Yun 1C

Agency: N/A

Status: Launch Successful

Launch date: May 10, 1999, 1:33 a.m. UTC

Rocket: Long March 4B

Launch pad: Launch Complex 7

Location: Taiyuan Satellite Launch Center, People's Republic of China

...

Latest news about this satellite

There are no fresh news available about this satellite. Check back as we update our databases every day.


Newsletter sign-up

Weekly statistics, charts and insights to help you stay on top of the space industry.